Back to catalog

KANOPUS-V-IK

AliveScienceSSO
NORAD 42825·PAYLOAD·🇷🇺 Russia

Launched Jul 14, 2017 from Baikonur Cosmodrome

Loading…

Next Passes (next 24 hours)

TLE

FreshSource: Space-Track

Epoch: Sep 14, 2026, 15:56 UTC

1 42825U 17042A   26257.66425900  .00001700  00000-0  76527-4 0  9998
2 42825  97.3472 161.2871 0001857  88.2874 271.8576 15.22415798508989

Track KANOPUS-V-IK in real time with AllMySat

Download on the App Store